User: anonymous   Login
Location: Chmeli�t?
(49.8978°N, 15.0526°E)
Time: 13:47:15
(UTC+00:00)
Language:

STARLINK-1275 - Orbit

View from above orbital plane
View from above orbital plane
View from above satellite
View from above satellite

Ground track
Ground track

The orbit data is extracted from the following two-line orbital elements,

1 45407U 20019AZ  20218.91667824 -.00035070 +00000-0 -23987-2 0  9996
2 45407 052.9995 302.4908 0001170 091.8285 136.2289 15.05595287001750
Epoch (UTC): 05 August 2020 22:00:01
Eccentricity: 0.0001170
inclination: 52.9995°
perigee height: 549 km
apogee height: 550 km
right ascension of ascending node: 302.4908°
argument of perigee: 91.8285°
revolutions per day: 15.05595287
mean anomaly at epoch: 136.2289°
orbit number at epoch: 175

The dashed part of the orbit path shows where the satellite is in the earth's shadow,  

DLR